PY5TG-13 Weather Reports


time (UTC)temp
C
wind
direction
speed
KPH
gust
KPH
rain 1hr
cm
rain 24hr
cm
rain mn
cm
humidity
%
barometer
mb
20260508025013 20 315 4.8 19.3 0.00 0.00 0.00 76 1009.0
20260508024012 20 315 4.8 12.9 0.00 0.00 0.00 76 1009.1
20260508023013 20 315 3.2 12.9 0.00 0.00 0.00 77 1009.2
20260508022014 20 315 4.8 14.5 0.00 0.00 0.00 76 1009.2
20260508021113 20 315 3.2 6.4 0.00 0.00 0.00 76 1009.4
20260508021007 20 315 4.8 12.9 0.00 0.00 0.00 76 1009.4
20260508020114 20 315 4.8 9.7 0.00 0.00 0.00 75 1009.2
20260508020009 20 315 4.8 19.3 0.00 0.00 0.00 76 1009.3
20260508014012 20 315 3.2 12.9 0.00 0.00 0.00 76 1009.6
20260508013112 20 315 4.8 12.9 0.00 0.00 0.00 76 1009.8
20260508013008 20 315 4.8 14.5 0.00 0.00 0.00 76 1009.7
20260508012012 20 315 4.8 12.9 0.00 0.00 0.00 75 1009.5
20260508010013 20 315 4.8 12.9 0.00 0.00 0.00 76 1009.6
20260508005014 20 315 4.8 12.9 0.00 0.00 0.00 76 1009.7
20260508004012 20 315 4.8 17.7 0.00 0.00 0.00 77 1009.7
20260508003112 20 315 1.6 6.4 0.00 0.00 0.00 78 1010.0
20260508003007 20 315 1.6 9.7 0.00 0.00 0.00 78 1010.1
20260508002012 20 315 3.2 8.0 0.00 0.00 0.00 77 1009.9
20260508001012 20 315 3.2 9.7 0.00 0.00 0.00 77 1009.6
20260508000112 20 315 4.8 9.7 0.00 0.00 0.00 76 1009.3
20260508000008 20 315 4.8 12.9 0.00 0.00 0.00 76 1009.3
20260507235012 20 315 3.2 9.7 0.00 0.00 0.00 76 1009.3
20260507234012 20 315 3.2 12.9 0.00 0.00 0.00 76 1009.3
20260507233012 20 315 4.8 12.9 0.00 0.00 0.00 77 1009.4
20260507232013 20 315 3.2 9.7 0.00 0.00 0.00 77 1009.2
20260507231013 20 315 3.2 9.7 0.00 0.00 0.00 77 1009.3
20260507230013 20 315 3.2 9.7 0.00 0.00 0.00 76 1009.1
20260507225013 20 315 3.2 9.7 0.00 0.00 0.00 77 1009.2
20260507224013 20 315 4.8 24.1 0.00 0.00 0.00 76 1009.1
20260507223013 20 315 3.2 12.9 0.00 0.00 0.00 76 1009.1
20260507222014 20 315 1.6 8.0 0.00 0.00 0.00 77 1009.4
20260507221013 20 315 3.2 9.7 0.00 0.00 0.00 76 1009.1
20260507220112 20 315 3.2 6.4 0.00 0.00 0.00 75 1008.8
20260507220007 21 315 3.2 9.7 0.00 0.00 0.00 75 1008.7
20260507215012 21 315 3.2 8.0 0.00 0.00 0.00 74 1008.7
20260507214012 21 315 3.2 9.7 0.00 0.00 0.00 73 1008.6
20260507213007 21 315 4.8 9.7 0.00 0.00 0.00 75 1008.7
20260507212012 21 315 3.2 14.5 0.00 0.00 0.00 75 1008.7
20260507211012 20 315 3.2 9.7 0.00 0.00 0.00 75 1008.9
20260507210013 21 315 3.2 8.0 0.00 0.00 0.00 76 1008.8
20260507205013 21 315 1.6 6.4 0.00 0.00 0.00 75 1008.7
20260507204012 21 315 3.2 9.7 0.00 0.00 0.00 72 1008.6
20260507203013 21 315 3.2 12.9 0.00 0.00 0.00 72 1008.5
20260507202112 21 315 3.2 6.4 0.00 0.00 0.00 72 1008.5
20260507202007 22 315 3.2 8.0 0.00 0.00 0.00 72 1008.4
20260507201112 22 315 3.2 6.4 0.00 0.00 0.00 71 1008.2
20260507201007 22 315 1.6 8.0 0.00 0.00 0.00 70 1008.2
20260507200012 22 315 1.6 9.7 0.00 0.00 0.00 69 1008.1
20260507195112 22 315 1.6 3.2 0.00 0.00 0.00 68 1008.2
20260507195007 23 315 3.2 9.7 0.00 0.00 0.00 67 1008.2
20260507194113 23 315 1.6 3.2 0.00 0.00 0.00 65 1007.9
20260507194007 23 315 1.6 9.7 0.00 0.00 0.00 65 1007.9
20260507193012 24 315 4.8 14.5 0.00 0.00 0.00 64 1007.9
20260507192013 24 315 4.8 14.5 0.00 0.00 0.00 64 1007.7
20260507191013 24 315 4.8 17.7 0.00 0.00 0.00 64 1007.6
20260507190111 24 315 11.3 19.3 0.00 0.00 0.00 65 1007.8
20260507190007 24 315 6.4 19.3 0.00 0.00 0.00 65 1007.8
20260507185013 25 315 8.0 19.3 0.00 0.00 0.00 67 1007.9
20260507184012 25 315 6.4 20.9 0.00 0.00 0.00 67 1007.7
20260507183014 24 315 4.8 14.5 0.00 0.00 0.00 67 1007.9
20260507182115 23 315 8.0 12.9 0.00 0.00 0.00 69 1008.1
20260507182007 23 315 4.8 19.3 0.00 0.00 0.00 70 1008.3
20260507181011 23 315 4.8 19.3 0.00 0.00 0.00 70 1008.5
20260507180112 23 315 6.4 20.9 0.00 0.00 0.00 67 1008.6
20260507180007 23 315 4.8 20.9 0.00 0.00 0.00 68 1008.6
20260507175012 23 315 4.8 12.9 0.00 0.00 0.00 69 1008.8
20260507174011 24 315 6.4 30.6 0.00 0.00 0.00 66 1008.5
20260507173013 25 315 9.7 27.4 0.00 0.00 0.00 63 1008.3
20260507172111 25 315 11.3 27.4 0.00 0.00 0.00 64 1008.6
20260507172007 25 315 9.7 30.6 0.00 0.00 0.00 63 1008.7
20260507171014 25 315 8.0 20.9 0.00 0.00 0.00 63 1008.6
20260507170111 25 315 9.7 17.7 0.00 0.00 0.00 63 1008.9
20260507170007 25 315 8.0 19.3 0.00 0.00 0.00 62 1008.8
20260507165011 24 315 8.0 20.9 0.00 0.00 0.00 64 1009.1
20260507164012 25 315 6.4 14.5 0.00 0.00 0.00 62 1008.7
20260507163014 25 315 4.8 17.7 0.00 0.00 0.00 65 1009.1
20260507162013 25 315 6.4 17.7 0.00 0.00 0.00 64 1009.4
20260507161012 25 315 9.7 20.9 0.00 0.00 0.00 62 1009.9
20260507160014 25 315 6.4 19.3 0.00 0.00 0.00 61 1009.7
20260507155013 25 270 6.4 27.4 0.00 0.00 0.00 65 1010.0
20260507154013 24 315 9.7 27.4 0.00 0.00 0.00 66 1010.4
20260507153357 24 315 11.3 24.1 0.00 0.00 0.00 64 1010.7
20260507153014 24 315 9.7 24.1 0.00 0.00 0.00 66 1010.7
20260507152013 24 315 8.0 30.6 0.00 0.00 0.00 65 1010.9
20260507151011 24 315 6.4 24.1 0.00 0.00 0.00 65 1010.9
20260507150013 24 315 6.4 20.9 0.00 0.00 0.00 65 1011.3
20260507145012 23 315 8.0 19.3 0.00 0.00 0.00 67 1011.4
20260507144111 23 315 11.3 20.9 0.00 0.00 0.00 64 1011.7
20260507144007 23 270 9.7 27.4 0.00 0.00 0.00 65 1011.5
20260507143011 23 315 8.0 24.1 0.00 0.00 0.00 65 1011.5
20260507142013 24 315 6.4 20.9 0.00 0.00 0.00 66 1011.5
20260507141118 23 315 8.0 17.7 0.00 0.00 0.00 66 1011.6
20260507141007 23 315 8.0 27.4 0.00 0.00 0.00 67 1011.7
20260507140113 23 315 6.4 9.7 0.00 0.00 0.00 68 1011.9
20260507140007 23 315 8.0 20.9 0.00 0.00 0.00 68 1011.9
20260507134011 23 315 8.0 20.9 0.00 0.00 0.00 69 1012.3
20260507133012 22 315 6.4 20.9 0.00 0.00 0.00 68 1012.2
20260507132111 23 315 9.7 14.5 0.00 0.00 0.00 69 1011.9
20260507132007 22 315 8.0 24.1 0.00 0.00 0.00 69 1012.2
20260507131012 22 315 8.0 24.1 0.00 0.00 0.00 67 1012.4
20260507130111 22 315 6.4 14.5 0.00 0.00 0.00 72 1012.7
20260507130007 22 315 8.0 17.7 0.00 0.00 0.00 72 1012.8
20260507125011 21 315 8.0 14.5 0.00 0.00 0.00 76 1013.1
20260507124011 21 315 9.7 20.9 0.00 0.00 0.00 75 1013.1
20260507123012 21 315 6.4 17.7 0.00 0.00 0.00 75 1013.1
20260507122013 22 315 8.0 19.3 0.00 0.00 0.00 76 1013.1
20260507121012 21 315 6.4 17.7 0.00 0.00 0.00 75 1013.2
20260507120112 21 315 8.0 14.5 0.00 0.00 0.00 75 1013.1
20260507120007 21 315 8.0 14.5 0.00 0.00 0.00 75 1013.2
20260507115011 21 315 6.4 20.9 0.00 0.00 0.00 74 1013.2
20260507114011 21 315 4.8 17.7 0.00 0.00 0.00 77 1013.3
20260507113111 21 315 6.4 9.7 0.00 0.00 0.00 75 1013.4
20260507113007 21 315 3.2 8.0 0.00 0.00 0.00 77 1013.4
20260507112011 20 315 1.6 8.0 0.00 0.00 0.00 83 1013.8
20260507111011 18 315 0.0 3.2 0.00 0.00 0.00 96 1014.2
20260507110111 17 315 0.0 1.6 0.00 0.00 0.00 98 1014.6
20260507110007 16 315 0.0 3.2 0.00 0.00 0.00 98 1014.8
20260507105011 15 315 0.0 3.2 0.00 0.00 0.00 98 1015.0
20260507104012 14 315 0.0 1.6 0.00 0.00 0.00 98 1015.1
20260507103111 13 180 0.0 0.0 0.00 0.00 0.00 98 1015.6
20260507103007 13 180 0.0 3.2 0.00 0.00 0.00 98 1015.5
20260507102011 13 180 0.0 3.2 0.00 0.00 0.00 98 1015.5
20260507101011 13 180 0.0 1.6 0.00 0.00 0.00 98 1015.6
20260507100111 13 180 0.0 1.6 0.00 0.00 0.00 98 1015.5
20260507100007 13 180 0.0 3.2 0.00 0.00 0.00 98 1015.5
20260507094011 13 180 0.0 3.2 0.00 0.00 0.00 98 1015.5
20260507093012 12 180 0.0 3.2 0.00 0.00 0.00 98 1015.5
20260507092013 13 225 0.0 3.2 0.00 0.00 0.00 98 1015.4
20260507091008 12 225 0.0 3.2 0.00 0.00 0.00 98 1015.5
20260507090011 12 270 0.0 3.2 0.00 0.00 0.00 98 1015.3
20260507085012 12 270 0.0 3.2 0.00 0.00 0.00 98 1015.3
20260507084111 13 270 1.6 3.2 0.00 0.00 0.00 98 1015.0
20260507084007 13 270 0.0 3.2 0.00 0.00 0.00 98 1015.0
20260507083011 12 270 0.0 3.2 0.00 0.00 0.00 98 1015.2
20260507082012 12 270 0.0 1.6 0.00 0.00 0.00 98 1015.3
20260507081111 12 270 0.0 1.6 0.00 0.00 0.00 98 1015.4
20260507081007 12 270 0.0 3.2 0.00 0.00 0.00 98 1015.4
20260507080011 12 270 0.0 1.6 0.00 0.00 0.00 98 1015.4
20260507075012 12 270 0.0 3.2 0.00 0.00 0.00 98 1015.5
20260507074111 13 270 0.0 1.6 0.00 0.00 0.00 98 1015.5
20260507074007 12 270 0.0 3.2 0.00 0.00 0.00 98 1015.6
20260507073012 12 270 0.0 1.6 0.00 0.00 0.00 98 1015.5
20260507072012 13 270 0.0 1.6 0.00 0.00 0.00 98 1015.8
20260507071012 12 270 0.0 0.0 0.00 0.00 0.00 98 1016.0
20260507070505 13 270 0.0 1.6 0.00 0.00 0.00 98 1016.0
20260507070111 13 270 0.0 0.0 0.00 0.00 0.00 98 1016.0
20260507070010 13 270 0.0 1.6 0.00 0.00 0.00 98 1015.9
20260507065012 13 270 0.0 3.2 0.00 0.00 0.00 98 1016.0
20260507064012 13 180 0.0 3.2 0.00 0.00 0.00 98 1016.0
20260507063112 13 315 0.0 0.0 0.00 0.00 0.00 98 1016.1
20260507063007 13 315 0.0 1.6 0.00 0.00 0.00 98 1016.1
20260507061011 13 270 0.0 1.6 0.00 0.00 0.00 98 1016.2
20260507060111 13 270 0.0 0.0 0.00 0.00 0.00 98 1016.3
20260507060007 13 270 0.0 6.4 0.00 0.00 0.00 98 1016.3
20260507055011 13 270 0.0 0.0 0.00 0.00 0.00 98 1016.4
20260507054011 13 225 0.0 3.2 0.00 0.00 0.00 98 1016.4
20260507053111 13 225 0.0 3.2 0.00 0.00 0.00 98 1016.6
20260507053007 13 225 0.0 3.2 0.00 0.00 0.00 98 1016.6
20260507052011 13 180 0.0 3.2 0.00 0.00 0.00 98 1016.8
20260507051011 13 180 0.0 1.6 0.00 0.00 0.00 98 1016.9
20260507050111 14 180 0.0 1.6 0.00 0.00 0.00 98 1016.8
20260507050007 14 180 0.0 3.2 0.00 0.00 0.00 98 1016.8
20260507045011 14 180 0.0 1.6 0.00 0.00 0.00 98 1016.9
20260507044011 14 180 0.0 1.6 0.00 0.00 0.00 98 1017.1
20260507043111 15 180 0.0 1.6 0.00 0.00 0.00 98 1017.0
20260507043007 15 180 0.0 3.2 0.00 0.00 0.00 98 1017.1
20260507042011 14 225 0.0 1.6 0.00 0.00 0.00 98 1017.2
20260507041011 14 225 0.0 3.2 0.00 0.00 0.00 98 1017.2
20260507040013 15 225 0.0 3.2 0.00 0.00 0.00 98 1017.2
20260507035013 15 225 0.0 1.6 0.00 0.00 0.00 98 1017.4
20260507034013 15 225 0.0 3.2 0.00 0.00 0.00 98 1017.5
20260507033011 15 225 0.0 3.2 0.00 0.00 0.00 98 1017.5
20260507032012 15 225 0.0 3.2 0.00 0.00 0.00 97 1017.5
20260507031111 15 225 0.0 1.6 0.00 0.00 0.00 98 1017.5
20260507031007 15 225 0.0 3.2 0.00 0.00 0.00 98 1017.6